Wind_Speed
20 21 22 23 25 26 25 26 25 27 25 25 24 23 20 19 18 18 15 14 14 14 12 10 9 8 8 12 15 9 2 19 27 27 28 20 22 19 17 19 15 18 11 16 5 7 7
20 20 22 23 24 26 28 25 26 26 26 26 25 24 22 19 18 17 15 13 13 13 10 9 9 7 11 17 13 15 11 2 24 28 29 26 19 22 11 8 20 11 16 11 12 9 8
19 20 22 23 25 27 28 27 27 27 27 28 28 27 25 22 18 15 13 12 13 11 11 9 8 9 13 16 5 5 10 21 10 31 24 28 21 21 9 6 11 5 19 7 15 14 6
18 20 22 23 25 27 30 27 28 26 29 29 30 29 28 22 17 12 10 11 12 12 11 12 8 8 7 12 23 22 8 18 17 28 28 26 21 20 6 4 11 13 13 16 15 12 11
18 19 21 23 25 27 28 26 28 29 30 30 31 32 28 22 13 9 9 9 11 12 14 10 7 9 11 4 20 19 18 20 15 28 23 23 14 17 13 14 11 14 14 17 13 20 10
17 19 20 22 24 26 28 28 29 29 30 32 33 31 32 17 7 4 5 7 8 5 3 6 6 5 11 7 11 10 13 13 6 18 16 12 10 10 12 15 15 21 23 20 18 10 17
15 18 20 21 24 25 27 28 28 28 30 32 32 30 30 10 2 1 3 2 4 4 6 5 2 11 8 15 5 9 15 12 8 21 14 12 7 15 27 25 18 15 19 14 13 8 10
13 17 20 22 24 26 28 28 28 28 29 30 29 26 23 11 7 4 3 3 5 4 6 3 8 9 6 1 3 13 10 16 11 23 19 9 7 17 21 19 14 9 16 14 5 10 8
13 15 18 21 24 26 28 29 29 28 28 30 27 23 17 8 6 7 7 5 1 3 4 3 1 3 3 2 7 10 5 6 17 24 19 12 8 10 11 17 14 12 14 14 8 8 8
13 15 18 21 24 26 27 29 29 28 28 29 26 22 16 4 6 6 5 5 1 3 2 4 5 4 3 7 6 3 5 1 1 21 13 1 6 18 13 17 15 13 10 9 7 12 5
13 14 17 20 23 24 26 28 29 30 27 27 27 20 13 10 3 3 5 3 2 3 1 4 6 4 6 3 12 6 6 4 6 9 5 4 12 13 19 15 16 6 9 10 7 6 1
11 13 16 19 21 24 26 28 29 29 30 27 29 18 12 4 3 1 2 4 6 4 7 2 3 4 6 12 11 7 3 6 10 9 8 5 4 4 2 7 4 14 14 8 4 1 5
11 12 15 18 21 24 26 28 29 29 30 29 26 16 10 5 4 2 6 4 1 6 2 8 4 3 13 14 10 6 3 3 6 5 2 2 3 3 5 9 3 10 13 4 4 4 3
10 12 15 17 21 24 26 28 30 30 31 34 24 12 8 7 5 5 9 3 8 4 5 4 3 13 7 7 6 6 7 11 8 10 3 3 5 1 1 3 6 13 13 3 6 6 6
9 12 14 16 19 24 27 27 31 32 33 34 17 4 5 5 7 5 4 4 2 1 4 4 3 6 4 8 5 4 6 9 4 4 4 2 5 4 1 4 2 5 5 2 1 3 2
9 11 13 15 18 21 26 28 30 33 35 25 10 5 3 4 4 4 2 4 2 1 3 5 3 4 3 4 4 3 5 4 5 1 2 4 5 5 8 10 5 4 7 2 1 5 5
9 11 13 14 17 21 26 29 30 33 36 17 3 3 2 5 3 2 3 4 1 2 3 4 3 3 6 7 4 3 3 3 2 3 2 7 2 3 2 3 4 3 3 1 3 2 3
8 11 13 15 17 20 25 27 30 32 35 13 5 2 2 3 1 2 3 1 0 2 2 2 3 3 4 5 3 2 4 4 2 3 4 2 5 5 2 2 5 5 4 8 3 4 1
9 10 13 15 16 17 22 26 28 30 27 10 5 3 1 2 1 1 2 2 1 2 2 1 1 1 3 4 2 4 3 2 3 1 2 5 5 4 2 2 2 5 7 4 2 3 4
8 10 13 16 17 18 20 24 27 30 26 5 3 3 3 1 2 3 1 2 3 2 1 1 1 1 5 4 2 5 5 2 2 4 6 1 2 2 0 3 3 4 8 8 4 2 3
7 9 12 15 17 17 18 23 25 32 20 4 3 2 3 3 1 7 4 2 2 2 0 0 3 2 2 2 2 3 5 7 2 1 1 1 2 3 3 4 3 3 7 11 6 8 3
6 8 11 14 16 15 17 19 21 30 20 5 3 3 4 4 8 7 1 2 4 1 2 3 2 3 2 1 4 2 6 6 4 6 4 1 2 2 1 1 5 6 9 11 14 15 13
6 7 10 13 15 16 16 16 17 23 18 6 7 3 3 4 5 4 1 4 2 2 1 3 2 4 3 4 3 2 2 1 1 4 7 5 5 4 3 3 5 9 16 16 11 9 16
7 8 10 12 15 16 14 13 13 14 16 10 7 4 2 3 4 3 7 9 6 5 4 1 1 2 3 6 7 7 7 6 5 3 3 5 5 2 1 3 4 3 3 2 16 8 11
8 8 10 11 14 16 13 13 12 10 10 9 7 4 3 4 7 10 6 8 6 2 3 0 3 4 6 3 5 6 3 3 4 2 4 4 4 2 3 4 7 5 3 4 8 9 13
9 9 10 11 14 14 14 14 10 9 7 5 4 4 2 3 2 6 7 7 6 6 5 2 3 4 1 2 3 3 4 3 4 5 2 1 3 3 2 3 3 5 3 3 4 3 5
9 10 10 12 13 14 15 13 14 8 6 5 3 3 3 4 5 6 2 4 5 4 2 5 6 3 1 1 3 3 2 1 4 5 5 5 4 7 6 3 5 5 5 2 3 3 4
10 10 9 11 12 15 13 13 13 9 8 7 6 4 3 3 10 10 10 4 5 4 3 6 5 3 4 5 3 3 3 5 3 1 3 7 5 4 5 4 6 4 4 3 2 0 3
10 10 11 10 11 13 14 14 13 13 9 9 5 5 7 6 9 23 23 18 14 17 5 4 3 3 4 3 2 1 3 2 4 2 4 4 4 2 5 2 4 2 5 6 4 4 3
Wind_Direction
355 352 351 349 347 345 342 337 342 337 330 328 324 321 314 307 301 299 295 292 294 292 289 273 261 248 236 227 244 285 51 208 197 194 202 194 197 192 207 204 208 216 228 219 168 159 218
354 354 351 348 347 344 337 344 341 338 330 327 325 320 312 303 296 296 289 287 289 289 295 287 260 239 229 247 249 249 236 268 197 196 197 198 205 194 215 214 207 205 237 224 208 183 180
352 350 349 348 345 345 343 344 338 340 336 330 326 322 314 298 289 289 284 285 285 286 289 280 274 232 241 236 245 180 226 243 256 195 194 201 205 198 200 191 205 254 214 197 212 195 194
352 351 349 348 347 346 346 343 340 338 336 334 331 330 323 313 281 274 276 284 283 283 284 278 255 236 249 243 247 254 255 233 247 193 194 193 217 199 215 173 179 201 204 213 215 206 216
352 350 349 348 349 348 345 342 339 342 341 340 339 333 326 313 297 259 282 279 278 284 277 259 230 222 253 217 228 243 219 206 190 182 182 193 211 205 198 183 181 205 205 207 194 200 180
350 349 348 349 348 349 347 344 343 343 343 342 344 341 335 319 286 232 273 283 278 277 261 214 237 232 242 249 223 206 228 220 185 175 152 183 190 194 201 191 197 198 213 200 207 191 220
350 349 347 349 350 349 348 345 343 344 344 344 349 349 354 16 107 192 324 273 206 193 222 256 325 241 11 349 208 206 176 199 170 169 179 175 174 192 196 200 213 235 203 223 202 146 199
350 348 349 349 349 351 349 347 346 347 346 346 351 356 10 53 80 51 360 339 36 1 302 232 263 275 302 72 300 239 171 181 182 171 181 172 207 202 196 206 210 255 197 192 158 146 211
352 352 348 348 351 350 349 349 348 347 348 348 351 356 5 19 41 44 26 0 288 339 254 100 2 341 289 356 244 127 148 188 194 169 190 195 145 226 264 197 184 199 195 192 196 169 221
351 351 349 350 351 349 350 349 349 348 346 347 347 351 357 337 318 346 14 341 292 290 293 32 3 103 221 245 23 350 47 23 124 159 149 176 143 182 208 189 192 180 203 165 157 180 209
349 354 348 348 351 349 350 349 351 348 346 344 341 340 345 43 5 31 317 346 358 264 75 329 317 319 254 239 160 22 25 274 127 117 133 111 201 194 196 191 198 188 153 167 179 214 275
351 352 348 349 347 350 351 349 351 350 343 342 336 324 341 309 34 131 284 319 293 244 44 330 263 241 159 185 106 149 68 71 87 62 39 29 32 344 211 54 141 136 129 118 110 195 235
349 349 350 345 346 351 351 350 350 349 345 338 336 316 313 315 349 296 316 288 288 14 294 9 333 346 85 72 74 71 88 88 105 120 123 78 18 60 23 88 35 175 169 136 168 188 231
346 348 346 346 346 348 350 349 348 348 345 340 334 312 280 286 292 293 300 243 54 353 351 335 326 54 47 29 62 36 114 95 108 107 120 99 114 50 248 125 177 186 194 232 191 192 159
348 349 349 345 348 346 348 349 348 347 346 344 347 323 278 288 299 283 270 48 87 68 315 334 65 63 48 76 101 56 52 79 104 77 82 106 79 79 81 207 133 174 199 27 31 38 175
346 350 347 346 347 347 349 350 351 346 345 346 338 310 278 291 300 261 352 84 3 171 290 260 52 311 100 96 95 172 71 52 101 72 277 147 103 120 153 152 161 193 144 163 197 173 211
344 345 348 347 348 348 352 351 353 350 346 355 329 298 85 329 244 223 30 51 295 211 273 326 28 111 128 148 143 67 46 98 79 113 205 148 106 127 183 215 179 137 183 226 312 313 293
342 342 348 349 349 350 350 351 353 356 350 1 322 315 351 353 330 314 99 99 80 354 171 285 311 41 152 143 160 91 118 66 88 153 136 27 105 146 119 55 329 327 239 204 232 179 8
337 346 350 349 348 349 352 353 355 354 356 324 335 303 31 4 44 40 143 160 286 339 21 322 149 320 217 142 137 122 104 38 88 100 147 160 142 131 153 223 205 231 211 224 88 5 203
334 344 350 350 350 351 349 354 354 355 354 335 304 330 333 251 0 318 204 210 138 155 44 4 66 205 166 161 18 148 126 117 19 71 16 32 125 312 22 81 93 202 211 202 167 180 185
331 340 347 349 350 349 353 354 357 355 359 340 348 37 1 329 44 327 278 302 256 166 174 293 139 292 226 172 153 143 129 143 132 113 106 7 108 75 39 81 101 236 197 204 193 218 223
323 335 346 349 350 349 353 357 358 359 8 47 7 359 339 287 294 292 201 218 279 218 283 170 265 149 180 331 8 188 186 188 176 178 167 103 110 84 271 236 239 251 231 209 217 227 240
296 322 337 345 349 349 349 354 2 4 17 22 11 335 297 296 298 267 28 343 329 253 138 299 278 200 185 80 41 15 65 99 125 190 186 170 148 184 157 210 246 252 228 211 205 207 219
290 304 325 336 343 346 349 355 3 12 22 13 18 311 316 292 298 317 326 313 301 287 311 109 258 262 81 141 130 111 104 104 110 105 204 184 165 192 311 228 236 84 63 216 218 215 211
281 288 313 324 337 346 343 347 351 359 6 14 8 355 345 299 315 288 299 299 284 233 232 159 63 48 144 183 143 146 145 182 107 102 180 229 192 184 247 229 304 209 194 177 172 232 214
274 288 305 323 332 341 342 341 344 349 340 355 338 351 316 305 63 348 308 302 290 220 169 102 120 134 188 249 200 185 199 212 181 158 125 139 274 232 192 260 262 60 114 158 226 130 148
268 283 303 318 323 335 332 333 345 329 322 316 294 271 289 274 289 352 286 314 306 302 276 137 161 180 220 227 244 201 196 253 195 198 177 178 212 230 237 269 291 136 125 184 236 92 74
263 280 297 308 320 327 325 325 334 321 309 297 277 216 237 264 284 267 278 294 327 263 273 125 155 207 194 213 236 191 239 195 210 166 183 193 195 206 210 232 259 129 146 221 54 315 4
261 273 287 299 319 328 323 325 315 313 308 290 279 220 235 235 278 290 275 265 239 261 307 293 331 157 212 211 223 161 211 191 232 223 190 220 222 247 217 226 77 142 73 70 68 82 55
Height
839 836 832 828 824 819 814 809 805 801 797 792 787 782 779 776 773 771 769 768 767 766 764 764 764 765 766 763 750 749 748 750 756 760 763 766 766 769 770 769 771 773 761 764 768 774 776
839 835 832 827 823 818 813 807 802 798 794 789 784 779 775 771 768 766 765 764 764 763 762 761 762 763 763 757 747 748 750 750 753 757 759 760 760 762 764 767 768 766 768 769 769 776 778
838 835 831 827 822 817 812 808 802 796 791 786 780 775 770 766 764 762 762 761 761 761 760 760 761 761 758 747 746 747 748 749 750 753 754 758 760 762 762 770 764 770 774 774 770 772 777
838 834 830 825 820 817 812 806 800 795 789 783 777 771 765 760 757 758 758 758 758 758 758 758 758 759 752 746 746 747 750 749 749 749 754 759 761 759 764 766 771 775 773 782 770 773 773
837 833 829 824 821 815 810 806 800 793 787 780 774 766 760 756 753 755 756 755 755 755 754 755 756 755 743 740 741 740 742 740 741 748 754 760 764 759 765 771 778 775 774 771 767 762 771
837 833 829 824 818 813 809 805 799 794 787 780 772 764 755 750 750 753 753 753 752 752 752 753 753 755 740 736 735 736 738 737 740 743 754 763 765 766 765 765 769 766 766 757 762 769 767
836 832 827 823 819 812 807 802 798 793 788 780 772 764 754 749 750 752 753 752 752 751 749 743 743 738 741 744 740 739 738 739 738 743 751 759 763 762 752 747 748 749 756 752 755 765 770
833 830 828 823 818 813 808 803 797 792 787 781 773 766 759 755 755 755 754 751 753 757 749 745 744 745 745 750 743 740 738 738 740 740 746 758 766 754 749 748 750 753 753 758 762 769 774
834 831 827 823 818 814 809 803 798 793 787 782 775 769 764 761 758 757 756 756 755 756 751 742 743 744 747 749 739 729 737 737 738 736 744 747 755 759 760 752 755 756 761 758 764 774 772
834 831 827 822 817 813 807 803 797 792 788 782 777 771 766 762 763 760 757 756 757 756 747 743 746 747 748 741 738 737 739 741 736 739 749 759 753 763 759 753 751 759 754 757 769 772 772
834 830 826 822 818 811 807 802 797 793 786 782 777 771 768 764 763 760 758 757 758 755 735 754 751 750 745 741 742 743 741 738 743 753 753 761 759 761 755 750 749 754 760 766 769 768 770
831 829 826 821 814 811 807 801 795 788 786 780 775 770 768 767 763 762 758 758 758 748 734 747 745 741 733 729 737 744 744 741 743 756 762 765 770 765 754 764 752 761 769 773 773 773 779
831 828 824 820 816 811 807 800 794 787 782 778 772 768 766 767 764 762 760 756 749 738 754 747 744 730 717 720 728 743 743 745 747 759 766 779 781 771 770 772 772 763 768 785 788 786 767
829 827 824 819 816 811 804 801 794 787 779 775 768 765 764 764 765 763 759 753 735 754 756 752 747 733 737 735 739 743 741 741 738 742 758 755 768 782 781 774 777 771 761 759 765 764 759
828 826 823 819 814 810 805 798 796 787 778 770 765 765 765 762 761 761 757 740 758 765 762 753 733 741 743 736 741 748 737 738 739 737 752 758 768 782 779 778 771 779 771 766 765 768 762
827 824 822 819 813 807 803 799 792 785 776 768 765 764 762 761 760 758 751 759 762 765 759 747 738 732 733 737 736 736 730 739 744 744 742 750 766 771 774 774 773 766 763 771 773 770 760
826 824 820 817 813 810 804 799 792 784 776 767 765 759 760 759 760 749 758 759 759 752 753 745 736 734 732 734 731 731 737 744 741 745 741 742 748 774 765 763 759 766 765 766 763 764 748
825 823 820 818 815 810 804 797 795 787 778 772 767 759 760 758 754 746 748 752 758 747 748 746 738 733 731 733 734 734 737 737 744 741 744 749 753 767 767 767 765 759 754 754 762 766 767
826 823 821 818 814 809 805 799 792 788 782 778 771 759 758 758 755 751 753 750 749 745 744 742 739 739 737 736 741 740 741 748 747 744 744 747 758 771 774 770 768 768 761 759 768 775 775
824 823 821 819 814 811 806 801 794 788 781 780 770 766 758 753 754 748 748 748 744 748 744 743 741 739 738 739 738 744 747 751 751 749 754 748 752 754 752 762 759 771 762 765 774 776 760
823 822 820 818 815 812 809 804 798 790 782 780 774 776 777 763 750 753 749 746 743 742 743 740 740 739 736 740 740 743 746 752 752 756 752 749 764 766 761 761 772 767 765 768 782 767 765
824 821 819 817 816 811 806 803 800 794 787 781 784 783 779 772 761 754 752 743 745 745 744 740 739 740 738 738 739 741 744 744 745 753 751 755 769 769 770 763 765 769 763 763 767 766 762
821 821 819 817 815 811 809 804 801 797 792 788 789 788 787 771 757 753 752 747 745 747 747 745 739 738 739 745 745 742 743 741 744 747 751 755 764 768 760 768 765 762 752 754 756 756 757
821 820 819 816 814 810 807 804 803 799 799 800 796 795 789 772 765 758 758 757 751 748 746 746 744 741 751 749 746 745 745 747 748 751 748 754 759 760 760 762 759 746 745 743 748 748 752
819 817 816 816 814 811 808 806 803 801 799 798 798 797 793 786 772 764 761 760 752 750 749 748 751 749 751 749 749 750 752 752 753 753 752 749 752 758 758 751 739 736 747 748 748 745 745
817 817 815 815 814 810 809 806 804 802 800 796 797 797 796 793 768 775 770 764 755 746 749 753 757 755 754 749 748 753 754 747 753 758 758 757 753 759 761 757 744 738 741 740 742 744 739
815 815 814 811 812 810 810 807 804 802 801 798 795 796 796 793 778 780 773 770 760 752 747 749 754 755 755 752 752 750 747 742 749 749 756 758 759 760 759 757 743 736 742 741 750 756 744
811 812 811 810 810 807 806 806 801 801 802 800 794 793 795 791 782 781 779 781 775 759 749 748 753 754 753 752 749 745 743 743 743 741 747 750 754 754 755 761 757 739 744 748 751 745 747
811 809 808 808 805 805 804 802 800 798 797 798 795 792 792 792 781 778 776 775 774 775 774 753 746 742 741 744 748 747 747 745 739 744 745 750 743 743 744 742 740 740 742 746 748 748 751